This demonstration page uses our WeatherBlox Daily Observations layout. Learn more.

Left ArrowRight Arrow

38.20091, -84.87328

Hourly Observations for August 19, 2019

Temp ( °F °C ) Dew Point ( °F °C ) Humidity (%) Winds ( mph kmh ) Pressure ( in mb ) Visibility ( mi km ) Precip ( " mm )
12:53 am 00:53 Partly Cloudy 78 25.6 69 20.6 74 74 Calm 29.97 1015 10 16 0.00 0.00
1:53 am 01:53 Clear 78 25.6 69 20.6 74 74 NNE 3 6 29.97 1015 10 16 0.00 0.00
2:53 am 02:53 Clear 77 25 68 20 74 74 NE 3 6 29.96 1015 10 16 0.00 0.00
3:53 am 03:53 Clear 77 25 67 19.4 71 71 N 3 6 29.96 1015 10 16 0.00 0.00
4:53 am 04:53 Clear 72 22.2 68 20 87 87 Calm 29.96 1015 10 16 0.00 0.00
5:53 am 05:53 Clear 72 22.2 68 20 87 87 Calm 29.98 1015 10 16 0.00 0.00
6:53 am 06:53 Clear 72 22.2 68 20 87 87 Calm 29.99 1016 10 16 0.00 0.00
7:53 am 07:53 Sunny 74 23.3 69 20.6 85 85 Calm 30.01 1016 10 16 0.00 0.00
8:53 am 08:53 Sunny 79 26.1 69 20.6 72 72 SE 7 11 30.02 1017 10 16 0.00 0.00
9:53 am 09:53 Sunny 83 28.3 70 21.1 65 65 SSE 7 11 30.02 1017 10 16 0.00 0.00
10:53 am 10:53 Sunny 87 30.6 70 21.1 57 57 Calm 30.03 1017 10 16 0.00 0.00
11:53 am 11:53 Sunny 90 32.2 70 21.1 52 52 SSW 7 11 30.04 1017 10 16 0.00 0.00
12:53 pm 12:53 Sunny 92 33.3 70 21.1 49 49 undefined N/A 30.03 1017 10 16 0.00 0.00
1:53 pm 13:53 Mostly Sunny 94 34.4 69 20.6 44 44 undefined N/A 30.02 1017 10 16 0.00 0.00
2:53 pm 14:53 Mostly Sunny 94 34.4 68 20 43 43 SSW 7 11 30.00 1016 10 16 0.00 0.00
3:53 pm 15:53 Mostly Sunny 96 35.6 66 18.9 37 37 VRB 6 9 29.98 1015 10 16 0.00 0.00
4:53 pm 16:53 Mostly Sunny 95 35 65 18.3 37 37 Calm 29.96 1015 10 16 0.00 0.00
5:53 pm 17:53 Sunny 95 35 66 18.9 39 39 W 6 9 29.95 1014 10 16 0.00 0.00
6:53 pm 18:53 Mostly Sunny 94 34.4 65 18.3 38 38 W 5 7 29.95 1014 10 16 0.00 0.00
7:53 pm 19:53 Sunny 88 31.1 69 20.6 54 54 WNW 3 6 29.95 1014 10 16 0.00 0.00
8:53 pm 20:53 Mostly Clear 85 29.4 69 20.6 59 59 Calm 29.96 1015 10 16 0.00 0.00
9:53 pm 21:53 Partly Cloudy 83 28.3 70 21.1 65 65 Calm 29.99 1016 10 16 0.00 0.00
10:53 pm 22:53 Mostly Clear 79 26.1 71 21.7 77 77 Calm 30.01 1016 10 16 0.00 0.00
11:53 pm 23:53 Mostly Cloudy 80 26.7 71 21.7 74 74 Calm 30.02 1017 10 16 0.00 0.00

Powered by AerisWeather